sat.trackr.live / text

‹ back to catalog

STARLINK-31040

NORAD 58722 · 2024-002T

PAYLOAD ACTIVE UNKNOWN

§ Identity

Operator
Country
US
Launch date
2024-01-03
Launch site
AFWTR
Launch vehicle
Mass (kg)
RCS (m²)

Purposes: comms

External: N2YO · Heavens-Above · Gunter

§ Orbital elements

Epoch: 2026-05-24T12:23:18.765024Z

Period
94.04 min
Inclination
53.1597°
Eccentricity
0.0002167
Mean motion
15.31263982 rev/d
Perigee alt
470.6 km
Apogee alt
473.5 km
Semi-major
6,850.2 km
B*
4.1838e-3
RAAN
237.7991°
Arg perigee
41.0938°
Mean anomaly
319.0226°
Rev number
13,362

§ Raw data

STARLINK-310401 58722U 24002T   26144.51618941  .00129966  00000+0  41838-2 0  99922 58722  53.1597 237.7991 0002167  41.0938 319.0226 15.31263982133623

JSON: /api/v1/satellites/58722 · /tle

For live sub-satellite position, see the globe view (requires WebGL).

§ Visibility from observer

Set your observer location to see the next 7 days of passes ≥ 10°. The values pass through the URL so the page stays shareable.

No JS? Fill the form by hand. The geolocation button needs JavaScript.